E1521 Weather Reports


Display with metric or nautical units.
time (UTC)temp
F
wind
direction
speed
MPH
gust
MPH
rain 1hr
in
rain 24hr
in
rain mn
in
humidity
%
barometer
mb
20260508212516 95 316 6.0 10.0 0.00 0.00 0.00 15 1010.2
20260508211516 94 303 5.0 11.0 0.00 0.00 0.00 16 1010.3
20260508210517 94 307 5.0 13.0 0.00 0.00 0.00 15 1010.4
20260508205515 94 310 2.0 8.0 0.00 0.00 0.00 16 1010.6
20260508204517 94 292 3.0 10.0 0.00 0.00 0.00 16 1010.7
20260508203516 93 318 4.0 9.0 0.00 0.00 0.00 16 1010.8
20260508202516 93 307 3.0 12.0 0.00 0.00 0.00 17 1011.0
20260508201517 94 325 4.0 9.0 0.00 0.00 0.00 16 1011.1
20260508200516 94 165 2.0 4.0 0.00 0.00 0.00 16 1011.3
20260508195536 93 288 2.0 9.0 0.00 0.00 0.00 16 1011.5
20260508194515 93 281 4.0 9.0 0.00 0.00 0.00 16 1011.6
20260508193516 91 286 4.0 8.0 0.00 0.00 0.00 16 1011.7
20260508192515 91 307 1.0 9.0 0.00 0.00 0.00 16 1011.9
20260508191516 91 330 1.0 5.0 0.00 0.00 0.00 17 1012.0
20260508190517 92 308 1.0 11.0 0.00 0.00 0.00 16 1012.2
20260508185515 92 175 0.0 2.0 0.00 0.00 0.00 17 1012.3
20260508184515 90 284 0.0 6.0 0.00 0.00 0.00 18 1012.5
20260508183515 90 288 1.0 6.0 0.00 0.00 0.00 18 1012.7
20260508182517 89 339 0.0 3.0 0.00 0.00 0.00 17 1012.8
20260508181517 91 131 1.0 3.0 0.00 0.00 0.00 17 1013.0
20260508180515 89 296 0.0 4.0 0.00 0.00 0.00 18 1013.0
20260508175516 88 247 0.0 5.0 0.00 0.00 0.00 19 1013.2
20260508174516 88 153 1.0 5.0 0.00 0.00 0.00 19 1013.2
20260508173535 87 126 0.0 6.0 0.00 0.00 0.00 19 1013.3
20260508172515 87 156 1.0 5.0 0.00 0.00 0.00 20 1013.4
20260508171516 86 132 0.0 1.0 0.00 0.00 0.00 21 1013.5
20260508170515 86 273 1.0 6.0 0.00 0.00 0.00 21 1013.6
20260508165515 85 136 0.0 5.0 0.00 0.00 0.00 22 1013.7
20260508164517 84 140 1.0 5.0 0.00 0.00 0.00 22 1013.7
20260508163515 84 164 1.0 3.0 0.00 0.00 0.00 23 1013.7
20260508162535 83 160 1.0 6.0 0.00 0.00 0.00 23 1013.7
20260508161515 82 137 1.0 6.0 0.00 0.00 0.00 24 1013.7
20260508160515 81 141 2.0 5.0 0.00 0.00 0.00 24 1013.7
20260508155515 80 133 1.0 5.0 0.00 0.00 0.00 25 1013.8
20260508154515 79 137 2.0 5.0 0.00 0.00 0.00 26 1013.8
20260508153535 79 140 1.0 4.0 0.00 0.00 0.00 27 1013.9
20260508152515 77 132 1.0 4.0 0.00 0.00 0.00 29 1013.9
20260508151516 76 126 2.0 5.0 0.00 0.00 0.00 30 1013.9
20260508150516 75 135 2.0 5.0 0.00 0.00 0.00 30 1013.9
20260508145517 74 132 2.0 6.0 0.00 0.00 0.00 32 1013.9
20260508144516 73 129 1.0 5.0 0.00 0.00 0.00 32 1013.9
20260508143537 72 126 2.0 5.0 0.00 0.00 0.00 34 1014.0
20260508142518 71 129 2.0 5.0 0.00 0.00 0.00 36 1013.8
20260508141522 69 131 1.0 4.0 0.00 0.00 0.00 37 1013.7
20260508140521 68 120 0.0 1.0 0.00 0.00 0.00 38 1013.7
20260508135518 67 128 1.0 3.0 0.00 0.00 0.00 39 1013.5
20260508134516 66 134 1.0 3.0 0.00 0.00 0.00 41 1013.3
20260508133518 65 149 0.0 3.0 0.00 0.00 0.00 41 1013.2
20260508132518 64 146 1.0 3.0 0.00 0.00 0.00 42 1013.2
20260508131517 63 149 0.0 2.0 0.00 0.00 0.00 41 1013.0
20260508130516 62 135 0.0 2.0 0.00 0.00 0.00 43 1012.8
20260508125518 62 129 1.0 3.0 0.00 0.00 0.00 43 1012.7
20260508124517 62 130 0.0 2.0 0.00 0.00 0.00 43 1012.6
20260508123517 62 127 0.0 2.0 0.00 0.00 0.00 43 1012.4
20260508122517 62 128 0.0 1.0 0.00 0.00 0.00 43 1012.4
20260508121518 62 122 0.0 1.0 0.00 0.00 0.00 43 1012.4
20260508120536 62 131 0.0 2.0 0.00 0.00 0.00 42 1012.4
20260508115537 62 130 0.0 1.0 0.00 0.00 0.00 42 1012.3
20260508114516 63 156 0.0 2.0 0.00 0.00 0.00 41 1012.4
20260508113516 63 132 0.0 1.0 0.00 0.00 0.00 41 1012.3
20260508112516 63 124 0.0 1.0 0.00 0.00 0.00 41 1012.3
20260508111538 63 0.0 1.0 0.00 0.00 0.00 41 1012.3
20260508110518 63 0.0 1.0 0.00 0.00 0.00 39 1012.2
20260508105518 63 127 0.0 1.0 0.00 0.00 0.00 39 1012.2
20260508104517 64 139 0.0 1.0 0.00 0.00 0.00 39 1012.0
20260508103516 64 139 0.0 1.0 0.00 0.00 0.00 39 1012.0
20260508102516 65 118 0.0 2.0 0.00 0.00 0.00 37 1012.0
20260508101517 66 136 0.0 1.0 0.00 0.00 0.00 35 1012.0
20260508100517 66 0.0 1.0 0.00 0.00 0.00 35 1012.0
20260508095516 66 128 0.0 3.0 0.00 0.00 0.00 35 1012.0
20260508094516 66 132 0.0 2.0 0.00 0.00 0.00 37 1012.0
20260508093517 66 92 0.0 1.0 0.00 0.00 0.00 37 1012.0
20260508092516 67 78 0.0 2.0 0.00 0.00 0.00 37 1012.0
20260508091516 67 93 0.0 2.0 0.00 0.00 0.00 37 1012.0
20260508090517 67 0.0 0.0 0.00 0.00 0.00 37 1011.9
20260508085537 67 180 0.0 2.0 0.00 0.00 0.00 36 1012.0
20260508084536 67 132 1.0 4.0 0.00 0.00 0.00 36 1012.0
20260508083517 68 146 2.0 5.0 0.00 0.00 0.00 36 1012.0
20260508082516 68 142 1.0 4.0 0.00 0.00 0.00 34 1012.1
20260508081517 68 140 1.0 4.0 0.00 0.00 0.00 34 1012.1
20260508080517 69 131 2.0 4.0 0.00 0.00 0.00 32 1012.2
20260508075517 69 146 1.0 3.0 0.00 0.00 0.00 31 1012.2
20260508074517 70 134 1.0 4.0 0.00 0.00 0.00 28 1012.1
20260508073538 70 141 2.0 6.0 0.00 0.00 0.00 24 1012.1
20260508072536 71 130 2.0 5.0 0.00 0.00 0.00 24 1012.2
20260508071516 71 133 2.0 5.0 0.00 0.00 0.00 20 1012.2
20260508070516 72 122 1.0 3.0 0.00 0.00 0.00 19 1012.2
20260508065558 72 129 1.0 3.0 0.00 0.00 0.00 19 1012.1
20260508064516 72 127 1.0 4.0 0.00 0.00 0.00 19 1012.0
20260508063542 73 135 1.0 5.0 0.00 0.00 0.00 19 1012.0
20260508062517 73 124 4.0 8.0 0.00 0.00 0.00 20 1012.0
20260508061516 74 130 0.0 1.0 0.00 0.00 0.00 22 1011.8
20260508060516 74 124 0.0 1.0 0.00 0.00 0.00 21 1011.7
20260508055517 74 125 0.0 1.0 0.00 0.00 0.00 20 1011.7
20260508054515 75 0.0 0.0 0.00 0.00 0.00 19 1011.8
20260508053517 76 0.0 0.0 0.00 0.00 0.00 19 1011.7
20260508052516 76 0.0 1.0 0.00 0.00 0.00 18 1011.7
20260508051516 77 0.0 1.0 0.00 0.00 0.00 17 1011.6
20260508050556 78 288 0.0 1.0 0.00 0.00 0.00 17 1011.5
20260508045517 80 0.0 0.0 0.00 0.00 0.00 15 1011.5
20260508044516 81 0.0 0.0 0.00 0.00 0.00 13 1011.3
20260508043515 83 0.0 0.0 0.00 0.00 0.00 12 1011.3
20260508042516 84 293 0.0 2.0 0.00 0.00 0.00 11 1011.2
20260508041517 84 286 1.0 2.0 0.00 0.00 0.00 11 1011.0
20260508040515 84 263 0.0 2.0 0.00 0.00 0.00 12 1011.0
20260508035515 84 264 0.0 3.0 0.00 0.00 0.00 12 1010.8
20260508034537 84 265 1.0 4.0 0.00 0.00 0.00 12 1010.7
20260508033559 85 272 0.0 4.0 0.00 0.00 0.00 12 1010.5
20260508032517 85 261 1.0 4.0 0.00 0.00 0.00 11 1010.4
20260508031517 85 244 1.0 4.0 0.00 0.00 0.00 11 1010.3
20260508030519 85 232 0.0 1.0 0.00 0.00 0.00 11 1010.0
20260508025516 86 220 0.0 2.0 0.00 0.00 0.00 10 1009.8
20260508024544 87 233 0.0 2.0 0.00 0.00 0.00 10 1009.7
20260508023517 88 265 0.0 5.0 0.00 0.00 0.00 10 1009.5
20260508022516 88 255 1.0 5.0 0.00 0.00 0.00 10 1009.4
20260508021538 89 270 2.0 7.0 0.00 0.00 0.00 9 1009.4
20260508020516 90 274 3.0 8.0 0.00 0.00 0.00 9 1009.2
20260508015515 91 283 4.0 9.0 0.00 0.00 0.00 8 1009.1
20260508014516 92 278 3.0 8.0 0.00 0.00 0.00 8 1008.9
20260508013516 92 284 2.0 8.0 0.00 0.00 0.00 8 1008.9
20260508012517 92 287 5.0 11.0 0.00 0.00 0.00 8 1008.9
20260508011515 92 281 4.0 10.0 0.00 0.00 0.00 8 1008.8
20260508010520 93 295 5.0 8.0 0.00 0.00 0.00 8 1008.8
20260508005515 94 269 2.0 6.0 0.00 0.00 0.00 8 1008.7
20260508004515 94 274 4.0 11.0 0.00 0.00 0.00 8 1008.8
20260508003515 93 260 1.0 8.0 0.00 0.00 0.00 8 1008.9
20260508002515 93 309 2.0 9.0 0.00 0.00 0.00 9 1008.9
20260508001516 93 289 3.0 9.0 0.00 0.00 0.00 9 1008.9
20260508000536 93 290 1.0 4.0 0.00 0.00 0.00 9 1008.9
20260507235516 93 303 5.0 10.0 0.00 0.00 0.00 9 1009.0
20260507234535 93 305 3.0 8.0 0.00 0.00 0.00 9 1009.0
20260507233516 92 291 3.0 12.0 0.00 0.00 0.00 9 1009.1
20260507232515 93 296 4.0 12.0 0.00 0.00 0.00 9 1009.2
20260507231516 93 306 5.0 10.0 0.00 0.00 0.00 10 1009.2
20260507230540 93 302 4.0 8.0 0.00 0.00 0.00 9 1009.2
20260507225541 93 285 3.0 11.0 0.00 0.00 0.00 9 1009.4
20260507224515 93 330 3.0 10.0 0.00 0.00 0.00 10 1009.5
20260507223555 93 21 1.0 7.0 0.00 0.00 0.00 9 1009.6
20260507222536 93 314 2.0 11.0 0.00 0.00 0.00 10 1009.7
20260507221515 92 287 3.0 8.0 0.00 0.00 0.00 10 1009.8
20260507220516 94 301 5.0 9.0 0.00 0.00 0.00 10 1010.0
20260507215515 93 199 1.0 5.0 0.00 0.00 0.00 10 1010.0
20260507214515 93 274 3.0 11.0 0.00 0.00 0.00 10 1010.2
20260507213515 92 273 3.0 9.0 0.00 0.00 0.00 11 1010.3